TimeCST,TemperatureF,Dew PointF,Humidity,Sea Level PressureIn,VisibilityMPH,Wind Direction,Wind SpeedMPH,Gust SpeedMPH,PrecipitationIn,Events,Conditions,WindDirDegrees,DateUTC
12:15 AM,63.0,52.3,68,29.98,10.0,North,3.5,-,N/A,,Clear,10,2013-02-13 06:15:00
12:35 AM,62.8,52.3,69,29.97,10.0,NNE,3.5,-,N/A,,Clear,30,2013-02-13 06:35:00
12:55 AM,63.3,52.2,67,29.95,10.0,NNE,5.8,-,N/A,,Clear,30,2013-02-13 06:55:00
1:15 AM,63.3,52.2,67,30.00,10.0,NW,4.6,-,N/A,,Scattered Clouds,320,2013-02-13 07:15:00
1:35 AM,63.5,52.0,66,29.97,10.0,Calm,Calm,-,N/A,,Scattered Clouds,0,2013-02-13 07:35:00
2:15 AM,62.6,52.2,69,29.97,10.0,Calm,Calm,-,N/A,,Clear,0,2013-02-13 08:15:00
2:35 AM,62.6,52.5,70,29.96,10.0,NNE,3.5,-,N/A,,Scattered Clouds,30,2013-02-13 08:35:00
2:55 AM,62.2,52.7,71,29.98,10.0,Calm,Calm,-,N/A,,Overcast,0,2013-02-13 08:55:00
3:15 AM,61.7,53.4,74,29.98,10.0,NNW,4.6,-,N/A,,Overcast,330,2013-02-13 09:15:00
3:55 AM,62.6,52.9,70,29.99,10.0,NNW,5.8,-,N/A,,Clear,330,2013-02-13 09:55:00
4:15 AM,62.1,52.7,71,29.98,10.0,NNW,8.1,-,N/A,,Clear,330,2013-02-13 10:15:00
4:35 AM,62.1,52.5,71,30.00,10.0,NNW,6.9,-,N/A,,Mostly Cloudy,330,2013-02-13 10:35:00
4:55 AM,62.6,52.5,70,30.00,10.0,NNW,9.2,-,N/A,,Overcast,330,2013-02-13 10:55:00
5:35 AM,63.0,50.2,63,30.01,10.0,North,10.4,16.1,N/A,,Overcast,360,2013-02-13 11:35:00
5:55 AM,62.8,44.2,51,30.02,10.0,North,12.7,17.3,N/A,,Overcast,360,2013-02-13 11:55:00
6:15 AM,62.6,40.8,45,30.03,10.0,North,13.8,19.6,N/A,,Overcast,360,2013-02-13 12:15:00
6:35 AM,61.7,41.0,47,30.05,10.0,North,11.5,20.7,N/A,,Overcast,360,2013-02-13 12:35:00
6:55 AM,60.8,44.6,55,30.06,10.0,North,12.7,-,N/A,,Overcast,360,2013-02-13 12:55:00
7:15 AM,60.4,47.1,61,30.07,10.0,North,12.7,21.9,N/A,,Overcast,10,2013-02-13 13:15:00
7:35 AM,60.3,46.4,60,30.08,10.0,NNE,11.5,18.4,N/A,,Overcast,20,2013-02-13 13:35:00
7:55 AM,60.3,46.4,60,30.09,10.0,North,10.4,18.4,N/A,,Overcast,10,2013-02-13 13:55:00
8:15 AM,60.4,46.4,60,30.10,10.0,North,12.7,17.3,N/A,,Overcast,10,2013-02-13 14:15:00
8:35 AM,60.6,46.6,60,30.11,10.0,North,10.4,18.4,N/A,,Overcast,10,2013-02-13 14:35:00
8:55 AM,60.8,46.2,59,30.12,10.0,North,9.2,-,N/A,,Overcast,360,2013-02-13 14:55:00
9:15 AM,61.7,42.4,49,30.14,10.0,North,11.5,16.1,N/A,,Overcast,10,2013-02-13 15:15:00
9:35 AM,62.1,41.0,46,30.14,10.0,NNE,11.5,-,N/A,,Overcast,20,2013-02-13 15:35:00
9:55 AM,63.0,40.1,43,30.15,10.0,North,8.1,16.1,N/A,,Overcast,10,2013-02-13 15:55:00
10:15 AM,63.1,37.6,39,30.15,10.0,North,9.2,-,N/A,,Overcast,10,2013-02-13 16:15:00
10:35 AM,64.6,36.3,35,30.15,10.0,NNW,10.4,-,N/A,,Overcast,340,2013-02-13 16:35:00
10:55 AM,64.4,35.2,34,30.16,10.0,North,11.5,17.3,N/A,,Overcast,350,2013-02-13 16:55:00
11:35 AM,65.8,33.1,30,30.15,10.0,NNE,10.4,-,N/A,,Overcast,20,2013-02-13 17:35:00
11:55 AM,67.1,33.3,29,30.13,10.0,NNE,9.2,17.3,N/A,,Overcast,20,2013-02-13 17:55:00
12:15 PM,68.4,33.4,27,30.12,10.0,NNE,13.8,-,N/A,,Overcast,30,2013-02-13 18:15:00
12:35 PM,67.3,32.2,27,30.12,10.0,North,11.5,16.1,N/A,,Overcast,350,2013-02-13 18:35:00
12:55 PM,67.1,32.0,27,30.10,10.0,North,10.4,-,N/A,,Overcast,360,2013-02-13 18:55:00
1:15 PM,68.0,32.0,26,30.09,10.0,North,11.5,17.3,N/A,,Overcast,360,2013-02-13 19:15:00
1:35 PM,68.0,31.8,26,30.07,10.0,NNE,11.5,-,N/A,,Scattered Clouds,30,2013-02-13 19:35:00
1:55 PM,66.9,30.6,26,30.06,10.0,NNE,8.1,16.1,N/A,,Clear,20,2013-02-13 19:55:00
2:15 PM,66.7,30.9,26,30.05,10.0,NNW,10.4,-,N/A,,Scattered Clouds,340,2013-02-13 20:15:00
2:35 PM,67.1,29.7,25,30.05,10.0,North,10.4,-,N/A,,Scattered Clouds,360,2013-02-13 20:35:00
2:55 PM,67.1,29.8,25,30.04,10.0,NNE,10.4,-,N/A,,Scattered Clouds,20,2013-02-13 20:55:00
3:15 PM,67.8,28.0,23,30.03,10.0,North,9.2,16.1,N/A,,Clear,10,2013-02-13 21:15:00
3:55 PM,69.1,30.0,23,30.01,10.0,NE,8.1,-,N/A,,Clear,50,2013-02-13 21:55:00
4:15 PM,69.3,29.7,23,30.01,10.0,NNE,6.9,-,N/A,,Clear,20,2013-02-13 22:15:00
4:35 PM,69.4,29.3,22,30.02,10.0,NE,8.1,-,N/A,,Clear,40,2013-02-13 22:35:00
4:55 PM,68.4,29.3,23,30.01,10.0,NE,10.4,17.3,N/A,,Clear,50,2013-02-13 22:55:00
5:15 PM,67.5,28.9,24,30.01,10.0,NNE,10.4,-,N/A,,Clear,30,2013-02-13 23:15:00
5:35 PM,67.1,28.2,23,30.01,10.0,NE,8.1,-,N/A,,Clear,40,2013-02-13 23:35:00
5:55 PM,65.3,27.1,24,30.01,10.0,NE,6.9,-,N/A,,Clear,50,2013-02-13 23:55:00
6:15 PM,61.9,36.7,39,30.02,10.0,East,9.2,-,N/A,,Clear,80,2013-02-14 00:15:00
6:35 PM,60.8,37.9,43,30.03,10.0,East,5.8,-,N/A,,Clear,90,2013-02-14 00:35:00
7:15 PM,59.0,40.3,50,30.04,10.0,East,5.8,-,N/A,,Clear,90,2013-02-14 01:15:00
7:35 PM,58.8,41.0,52,30.04,10.0,East,10.4,-,N/A,,Clear,100,2013-02-14 01:35:00
7:55 PM,57.7,41.9,56,30.06,10.0,East,5.8,-,N/A,,Clear,100,2013-02-14 01:55:00
8:15 PM,57.4,42.1,57,30.06,10.0,East,5.8,-,N/A,,Clear,90,2013-02-14 02:15:00
8:35 PM,56.7,41.9,58,30.09,10.0,SE,4.6,-,N/A,,Clear,130,2013-02-14 02:35:00
8:55 PM,56.3,41.5,58,30.08,10.0,East,4.6,-,N/A,,Clear,90,2013-02-14 02:55:00
9:15 PM,55.4,41.7,60,30.07,10.0,Calm,Calm,-,N/A,,Clear,0,2013-02-14 03:15:00
9:35 PM,54.7,41.9,62,30.09,10.0,Calm,Calm,-,N/A,,Clear,0,2013-02-14 03:35:00
9:55 PM,54.5,41.9,62,30.10,10.0,Calm,Calm,-,N/A,,Clear,0,2013-02-14 03:55:00
10:15 PM,54.5,41.9,62,30.10,10.0,Calm,Calm,-,N/A,,Clear,0,2013-02-14 04:15:00
10:35 PM,54.5,41.9,62,30.11,10.0,East,3.5,-,N/A,,Clear,100,2013-02-14 04:35:00
10:55 PM,54.5,42.3,63,30.11,10.0,Calm,Calm,-,N/A,,Clear,0,2013-02-14 04:55:00
11:15 PM,53.2,42.3,66,30.11,10.0,Calm,Calm,-,N/A,,Clear,0,2013-02-14 05:15:00
11:35 PM,53.4,42.4,66,30.10,10.0,Calm,Calm,-,N/A,,Clear,0,2013-02-14 05:35:00
11:55 PM,53.6,42.8,67,30.12,10.0,SSE,3.5,-,N/A,,Clear,150,2013-02-14 05:55:00